Starlink 30405

operational
NORAD ID: 57851 Int'l Des: 2023-141 Owner: SPXS Country: US Constellation: starlink
LEOCIRCULAR

关于 Starlink 30405

正在加载描述...

实时位置

正在加载3D地球...

即将过境

高度历史

Altitude vs Time

uPlot chart will show altitude changes over time

两行轨道根数

1 57851U 23141M 25257.58436621 .00000061 00000-0 14196-4 0 9995
2 57851 53.1618 22.1946 0000976 88.6475 271.4638 15.30187999113363
Epoch: Sep 14, 2025 • Age: 21 hours

当前状态

高度 476.3 km
速度 7.63 km/s
星下点 28.02°N, 111.45°W
发射日期 Sep 12, 2023
运行时间 2 years
类型 internet

技术详情

分类 Payload
质量 730.00 kg
干质量 700.00 kg
总质量 730.00 kg
长度 0.30 m
直径 4.10 m
跨度 29.00 m
形状 Box + pan
制造商 SPXS
平台类型 Starlink V2M
阶段状态 In Orbit
所有者/国家 SPXS/US

大型星座

Loading constellations...